Starlink 35663

operational
NORAD ID: 66491 Int'l Des: 2025-263 Owner: SPXS Country: US Constellation: starlink
NOTLE

About Starlink 35663

Description loading...

Live Position

Loading 3D Globe...

Upcoming Passes

Altitude History

Altitude vs Time

uPlot chart will show altitude changes over time

Two-Line Element Set

1 66491U 25263G 25341.00002315 -.02045405 00000-0 -31949-1 0 9999
2 66491 42.9999 158.7357 0001585 268.6959 336.5057 15.56103927 4710
Epoch: Dec 7, 2025 • Age: 12 hours

Current Status

Altitude 413.1 km
Velocity 7.66 km/s
Sub-Earth Point -31.56°S, 116.12°E
Launch Date Nov 15, 2025
Age 22 days
Type internet

Technical Details

Classification Payload
Mass 575.00 kg
Dry Mass 530.00 kg
Total Mass 575.00 kg
Length 0.30 m
Diameter 4.10 m
Span 29.00 m
Shape Box + pan
Manufacturer SPXS
Bus Type Starlink V2MO
Phase Status In Orbit
Owner/State SPXS/US

Large Constellations

Loading constellations...